IRNSS-1F

Last updated on Tue Sep 22 2026 00:03:13 GMT+0000 (Coordinated Universal Time)

1 41384U 16015A 26264.56681103 .00000157 00000+0 00000+0 0 9994 2 41384 5.5859 94.5548 0020304 175.7053 326.8993 1.00279707 38639
UTC large
Height (km)
Speed (km/s)
/
Latitude / Longitude
Inclination (degrees)
Orbital Period (minutes)
Azimuth
Elevation
Range (km)
Doppler Factor

Next 0 passes for location: London (51.5072 / 0.1276)

No passes found over London.
IRNSS-1F